Weather reports worldwide

Advertisment
Charleville, France (7075): temperature & dewpoint: 24.10.2020 10:00:00 - 30.10.2020 10:00:00 (CET)Charleville, France (7075): temperature 5cm: 24.10.2020 10:00:00 - 30.10.2020 10:00:00 (CET)Charleville, France (7075): temperature -20cm & temperature -100cm: 24.10.2020 10:00:00 - 30.10.2020 10:00:00 (CET)Charleville, France (7075): wind speed & gusts: 24.10.2020 10:00:00 - 30.10.2020 10:00:00 (CET)Charleville, France (7075): wind direction: 24.10.2020 10:00:00 - 30.10.2020 10:00:00 (CET)Charleville, France (7075): reduced air pressure: 24.10.2020 10:00:00 - 30.10.2020 10:00:00 (CET)Charleville, France (7075): visibility: 24.10.2020 10:00:00 - 30.10.2020 10:00:00 (CET)Charleville, France (7075): sunshine duration: 24.10.2020 10:00:00 - 30.10.2020 10:00:00 (CET)Charleville, France (7075): precipitation: 24.10.2020 10:00:00 - 30.10.2020 10:00:00 (CET)
Date & Time tt [°C] td [°C] tt 5cm [°C] tt -20cm [°C] tt -100cm [°C] ff [km/h] ff [kn] fx [km/h] fx [kn] dd ppp [hPa] vv [km] sd [min] rr [mm]
30.10.2020 10:00:00 14,0 12,0 12,8 12,5 13,7 16 9 37 20 SW 1023,0 20 8 0,2
30.10.2020 09:00:00 13,2 11,8 12,8 12,5 13,8 16 9 35 19 SW 1022,8 13 0 0,0
30.10.2020 08:00:00 13,2 11,3 12,7 12,5 13,7 16 9 40 22 SW 1022,2 19 0 0,0
30.10.2020 07:00:00 13,3 11,4 12,7 12,5 13,7 16 9 33 18 SW 1021,5 20 0 0,0
30.10.2020 06:00:00 13,3 11,5 12,8 12,5 13,7 16 9 35 19 SW 1021,4 18 0 0,0
30.10.2020 05:00:00 13,5 11,4 13,0 12,5 13,8 18 10 34 18 SW 1021,2 20 0 0,0
30.10.2020 04:00:00 13,4 11,5 13,0 12,5 13,8 14 8 33 18 SW 1020,7 20 0 0,0
30.10.2020 03:00:00 13,4 11,6 12,7 12,4 13,7 16 9 38 20 SW 1020,7 20 0 0,0
30.10.2020 02:00:00 13,5 11,9 12,7 12,4 13,8 19 10 40 22 WSW 1020,5 20 0 0,0
30.10.2020 01:00:00 13,4 12,0 12,7 12,4 13,8 18 10 40 21 WSW 1020,3 20 0 0,0
30.10.2020 00:00:00 13,4 11,8 12,4 12,4 13,8 18 10 36 19 SW 1020,3 20 0 0,2
29.10.2020 23:00:00 13,1 11,8 12,2 12,4 13,8 18 10 35 19 SW 1020,2 10 0 0,0
29.10.2020 22:00:00 12,9 11,6 11,7 12,4 13,8 16 9 43 23 SSW 1020,2 12 0 0,0
29.10.2020 21:00:00 12,1 11,2 11,4 12,4 13,8 10 6 27 14 SW 1020,4 16 0 0,2
29.10.2020 20:00:00 11,8 10,9 11,0 12,4 13,8 13 7 29 16 SSW 1020,3 10 0 0,0
29.10.2020 19:00:00 11,6 10,3 10,8 12,4 13,8 13 7 31 17 SSW 1020,1 11 0 0,2
29.10.2020 18:00:00 11,5 10,1 10,7 12,3 13,8 9 5 28 15 SSW 1020,1 15 0 0,4
29.10.2020 17:00:00 11,7 10,1 11,0 12,3 13,8 10 5 26 14 SW 1020,2 10 0 0,2
29.10.2020 16:00:00 12,1 10,0 11,9 12,2 13,7 13 7 29 16 SW 1020,2 20 10 0,2
29.10.2020 15:00:00 12,3 9,8 12,7 12,2 13,8 17 9 33 18 SW 1020,2 20 0 0,0
29.10.2020 14:00:00 12,7 9,5 13,0 12,2 13,8 11 6 29 16 SW 1020,4 20 0 0,0
29.10.2020 13:00:00 12,1 9,3 12,2 12,2 13,8 15 8 29 16 WSW 1020,3 20 0 0,0
29.10.2020 12:00:00 11,6 9,3 12,0 12,2 13,8 14 8 33 18 WSW 1020,1 20 0 0,0
29.10.2020 11:00:00 11,5 9,1 10,3 12,2 13,8 18 10 31 17 WSW 1019,8 20 16 0,0
29.10.2020 10:00:00 10,3 8,6 10,3 12,2 13,8 14 8 32 17 WSW 1019,5 14 0 0,0
29.10.2020 09:00:00 10,2 8,0 9,3 12,2 13,8 14 8 32 17 WSW 1018,7 20 0 0,0
29.10.2020 08:00:00 10,0 7,9 8,9 12,3 13,8 14 8 27 15 WSW 1017,9 20 0 0,0
29.10.2020 07:00:00 9,8 7,7 8,8 12,3 13,8 15 8 32 17 WSW 1016,7 20 0 0,0
29.10.2020 06:00:00 9,6 7,5 8,2 12,3 13,8 10 5 31 17 WSW 1015,9 20 0 0,0
29.10.2020 05:00:00 10,0 7,4 8,7 12,3 13,8 15 8 32 17 WSW 1015,1 20 0 0,0
29.10.2020 04:00:00 10,1 7,7 9,0 12,3 13,8 14 7 29 16 WSW 1014,1 20 0 0,0
29.10.2020 03:00:00 10,5 8,4 9,4 12,4 13,8 14 8 29 15 WSW 1013,4 20 0 0,2
29.10.2020 02:00:00 10,6 8,5 9,5 12,4 13,8 17 9 34 19 WSW 1013,4 15 0 0,2
29.10.2020 01:00:00 10,8 8,4 9,0 12,4 13,8 13 7 29 16 WSW 1012,8 20 0 0,0
29.10.2020 00:00:00 10,5 8,1 9,0 12,4 13,8 11 6 36 19 WSW 1012,2 20 0 0,2
28.10.2020 23:00:00 10,8 7,8 9,4 12,4 13,8 22 12 47 25 W 1011,8 14 0 1,2
28.10.2020 22:00:00 12,0 9,4 10,5 12,4 13,8 15 8 39 21 SW 1010,6 20 0 0,0
28.10.2020 21:00:00 11,6 9,7 10,5 12,4 13,8 21 11 43 23 SSW 1010,6 20 0 1,0
28.10.2020 20:00:00 11,3 9,6 10,5 12,4 13,8 14 8 37 20 SSW 1010,7 20 0 0,8
28.10.2020 19:00:00 11,9 9,3 10,5 12,4 13,7 17 9 37 20 SSW 1010,9 14 0 0,2
28.10.2020 18:00:00 12,2 9,0 10,6 12,4 13,9 18 10 43 23 SSW 1010,8 17 0 0,0
28.10.2020 17:00:00 12,3 8,8 10,6 12,3 13,8 19 10 39 21 SSW 1010,5 19 0 0,2
28.10.2020 16:00:00 12,0 9,2 11,4 12,3 13,8 14 7 34 19 SSW 1011,1 20 0 0,2
28.10.2020 15:00:00 12,9 8,6 13,5 12,3 13,8 14 8 41 22 SSW 1011,2 20 5 0,0
28.10.2020 14:00:00 13,2 8,3 14,0 12,3 13,9 22 12 42 23 SSW 1011,4 20 15 0,0
28.10.2020 13:00:00 13,1 8,6 13,0 12,2 13,9 19 11 40 22 SW 1011,8 20 0 0,0
28.10.2020 12:00:00 12,2 8,3 12,9 12,2 13,9 15 8 41 22 SW 1011,8 20 15 0,0
28.10.2020 11:00:00 12,5 8,6 12,9 12,2 13,9 21 12 50 27 SW 1011,6 20 44 0,0
28.10.2020 10:00:00 11,7 8,7 11,2 12,2 13,9 16 9 36 19 SW 1011,3 20 30 0,0
28.10.2020 09:00:00 11,1 9,0 10,4 12,2 13,9 16 9 37 20 WSW 1010,8 20 0 0,0
28.10.2020 08:00:00 11,0 9,1 10,4 12,2 13,9 16 8 27 15 WSW 1009,8 20 0 0,0
28.10.2020 07:00:00 11,3 9,0 10,3 12,2 13,9 13 7 29 15 WSW 1008,8 20 0 0,0
28.10.2020 06:00:00 11,5 10,1 10,6 12,2 13,9 13 7 32 17 WSW 1008,1 20 0 0,0
28.10.2020 05:00:00 11,3 10,2 10,1 12,2 13,9 11 6 22 12 SSW 1007,6 20 0 0,0
28.10.2020 04:00:00 11,3 10,0 9,8 12,2 13,9 9 5 26 14 SW 1007,0 20 0 0,0
28.10.2020 03:00:00 11,8 10,2 10,5 12,2 13,9 11 6 29 16 SW 1007,0 20 0 0,0
28.10.2020 02:00:00 12,3 10,9 11,5 12,2 13,9 14 7 33 18 SW 1006,6 20 0 0,0
28.10.2020 01:00:00 12,0 11,1 11,1 12,2 13,9 11 6 27 14 SW 1006,1 20 0 0,0
28.10.2020 00:00:00 11,5 10,6 10,8 12,2 13,9 13 7 35 19 SSW 1005,9 20 0 0,0
27.10.2020 23:00:00 11,2 10,4 10,2 12,3 13,9 18 10 37 20 SSW 1005,6 6 0 0,6
27.10.2020 22:00:00 10,5 9,7 9,8 12,3 13,9 18 10 41 22 S 1005,4 2,5 0 1,2
27.10.2020 21:00:00 10,2 9,3 9,6 12,3 13,9 17 9 49 26 S 1005,4 2,5 0 1,4
27.10.2020 20:00:00 9,9 9,0 9,4 12,3 13,9 23 13 43 23 S 1005,3 2,5 0 0,6
27.10.2020 19:00:00 9,9 8,8 9,4 12,3 13,9 18 10 44 24 S 1005,8 3,8 0 0,8
27.10.2020 18:00:00 9,9 8,8 9,5 12,3 13,9 18 10 42 23 S 1005,9 2,6 0 0,6
27.10.2020 17:00:00 10,5 8,3 9,7 12,2 13,9 18 10 44 24 S 1006,2 10 1 0,0
27.10.2020 16:00:00 11,3 8,0 11,0 12,2 13,9 16 9 44 24 S 1006,5 19 4 0,0
27.10.2020 15:00:00 10,9 7,4 11,1 12,2 13,9 18 10 44 24 S 1007,1 20 0 0,0
27.10.2020 14:00:00 10,5 7,4 10,6 12,2 13,9 16 9 37 20 S 1007,6 20 0 0,0
27.10.2020 13:00:00 10,5 7,0 11,3 12,2 13,9 17 9 36 20 S 1008,4 20 3 0,0
27.10.2020 12:00:00 10,0 7,2 9,6 12,2 13,9 16 9 35 19 SSW 1008,6 20 0 0,0
27.10.2020 11:00:00 9,1 6,9 9,2 12,3 13,9 16 8 32 17 S 1009,0 20 0 0,0
27.10.2020 10:00:00 9,0 7,0 9,0 12,3 13,9 13 7 33 18 S 1008,7 20 0 0,0
27.10.2020 09:00:00 8,8 6,9 8,5 12,3 13,9 13 7 26 14 SSW 1008,2 19 0 0,0
27.10.2020 08:00:00 8,5 7,1 8,2 12,3 13,9 8 5 22 12 SSW 1008,1 20 0 0,0
27.10.2020 07:00:00 8,2 6,7 8,0 12,4 13,9 10 5 33 18 SSW 1007,8 20 0 0,0
27.10.2020 06:00:00 8,1 6,6 8,1 12,4 13,9 15 8 29 16 SW 1007,3 20 0 0,0
27.10.2020 05:00:00 8,3 6,6 8,2 12,4 13,9 13 7 31 17 SW 1006,8 20 0 0,0
27.10.2020 04:00:00 8,6 6,6 8,4 12,5 13,9 9 5 32 18 SW 1006,5 20 0 0,0
27.10.2020 03:00:00 8,8 6,8 8,5 12,5 13,9 14 8 31 17 SW 1006,4 20 0 0,0
27.10.2020 02:00:00 9,1 7,0 7,6 12,6 13,9 13 7 26 14 SW 1006,6 20 0 0,0
27.10.2020 01:00:00 8,7 6,8 7,7 12,6 13,9 11 6 26 14 SSW 1006,5 20 0 0,0
27.10.2020 00:00:00 8,7 7,0 7,9 12,6 13,9 11 6 23 12 SSW 1006,3 20 0 0,0
26.10.2020 23:00:00 9,0 7,0 8,3 12,7 13,9 8 5 24 13 SSW 1006,3 20 0 0,0
26.10.2020 22:00:00 9,2 7,3 8,3 12,7 13,9 10 5 23 12 SSW 1006,1 20 0 0,0
26.10.2020 21:00:00 9,0 7,3 8,0 12,8 13,9 10 5 21 11 S 1005,8 20 0 0,0
26.10.2020 20:00:00 9,0 7,0 6,1 12,8 13,9 10 5 22 12 S 1005,3 20 0 0,0
26.10.2020 19:00:00 7,2 6,1 4,5 12,8 13,9 9 5 14 7 SE 1005,5 20 0 0,0
26.10.2020 18:00:00 8,8 5,7 6,0 12,8 13,9 3 2 29 16 W 1004,5 20 0 0,2
26.10.2020 17:00:00 11,3 6,6 10,0 12,7 13,9 9 5 28 15 SSW 1004,1 20 0 0,0
26.10.2020 16:00:00 11,8 6,1 11,6 12,7 13,9 13 7 37 20 SSW 1004,0 20 15 0,0
26.10.2020 15:00:00 12,4 6,0 12,3 12,7 13,9 16 8 41 22 SW 1003,7 20 9 0,0
26.10.2020 14:00:00 12,4 6,4 12,7 12,7 13,9 16 9 33 18 SSW 1003,5 20 21 0,0
26.10.2020 13:00:00 11,6 5,9 12,5 12,7 13,9 18 10 38 21 SW 1003,9 20 25 0,0
26.10.2020 12:00:00 11,2 5,7 12,8 12,7 13,9 20 11 38 21 SW 1004,3 20 52 0,0
26.10.2020 11:00:00 10,6 6,5 10,0 12,7 13,9 16 9 37 20 SW 1004,3 20 19 0,0
26.10.2020 10:00:00 9,3 6,6 8,9 12,8 13,9 13 7 38 21 SW 1004,7 20 2 0,0
26.10.2020 09:00:00 8,9 6,7 8,8 12,8 13,9 16 8 37 20 SW 1004,8 20 0 0,0
26.10.2020 08:00:00 9,0 7,1 8,4 12,8 13,9 13 7 29 16 SW 1004,2 20 0 0,0
26.10.2020 07:00:00 9,2 7,3 8,4 12,9 13,9 12 7 33 18 SSW 1003,8 20 0 0,0
26.10.2020 06:00:00 9,2 7,3 8,2 12,9 13,9 11 6 22 12 SSW 1003,1 20 0 0,0
26.10.2020 05:00:00 9,2 7,3 8,2 13,0 13,9 10 5 27 14 SSW 1003,1 20 0 0,0
26.10.2020 04:00:00 9,8 7,6 8,9 13,0 13,9 12 7 28 15 SW 1003,1 20 0 0,0
26.10.2020 03:00:00 10,1 8,4 9,3 13,0 13,9 12 6 29 15 SSW 1003,0 20 0 0,0
26.10.2020 02:00:00 10,4 8,7 8,6 13,0 13,9 12 6 31 17 SW 1002,3 20 0 0,0
26.10.2020 01:00:00 9,2 8,7 8,6 13,1 13,9 8 4 14 7 SE 1002,4 20 0 0,0
26.10.2020 00:00:00 9,5 8,7 8,6 13,1 13,9 8 4 13 7 ESE 1002,9 20 0 0,8
25.10.2020 23:00:00 9,6 8,0 8,9 13,1 13,9 6 4 37 20 S 1003,3 13 0 1,2
25.10.2020 22:00:00 10,9 9,5 10,3 13,2 13,9 16 8 44 24 SSW 1003,2 4,9 0 1,2
25.10.2020 21:00:00 11,0 9,4 10,3 13,2 13,9 11 6 25 14 S 1003,1 20 0 0,0
25.10.2020 20:00:00 11,0 9,4 10,4 13,2 13,9 13 7 29 16 S 1003,5 20 0 0,0
25.10.2020 19:00:00 11,0 9,4 10,3 13,2 13,9 11 6 28 15 S 1003,8 20 0 0,0
25.10.2020 18:00:00 11,0 9,6 10,3 13,2 13,9 13 7 31 17 SSW 1003,9 20 0 0,0
25.10.2020 17:00:00 11,0 9,6 10,3 13,2 13,9 13 7 32 17 SSW 1003,4 20 0 1,0
25.10.2020 16:00:00 11,3 9,7 10,6 13,2 13,9 14 8 30 16 SSW 1003,5 20 0 0,6
25.10.2020 15:00:00 11,3 9,9 10,8 13,2 13,9 6 3 18 10 SSW 1003,6 20 0 0,0
25.10.2020 14:00:00 11,4 10,0 11,1 13,2 13,9 9 5 22 12 SSE 1003,4 20 0 0,8
25.10.2020 13:00:00 11,4 10,3 10,8 13,3 13,9 11 6 26 14 S 1004,2 15 0 0,6
25.10.2020 12:00:00 11,5 10,1 11,0 13,3 13,9 14 8 34 19 SSW 1004,6 11 0 1,6
25.10.2020 11:00:00 11,6 10,5 11,0 13,4 13,9 16 8 39 21 SSW 1005,0 9 0 2,0
25.10.2020 10:00:00 11,4 10,1 10,8 13,4 13,9 15 8 32 18 SSW 1004,5 7 0 1,3
25.10.2020 09:00:00 11,3 10,0 10,7 13,4 13,9 11 6 29 15 S 1004,9 9 0 2,4
25.10.2020 08:00:00 11,5 10,1 10,7 13,4 13,9 12 6 32 18 S 1005,2 8 0 2,6
25.10.2020 07:00:00 11,9 9,8 10,7 13,4 13,9 18 10 35 19 S 1005,3 14 0 0,8
25.10.2020 06:00:00 12,8 9,1 11,5 13,5 13,9 15 8 41 22 S 1005,2 20 0 0,0
25.10.2020 05:00:00 13,1 9,0 12,5 13,5 13,9 19 10 39 21 S 1005,5 20 0 0,0
25.10.2020 04:00:00 13,2 9,4 11,9 13,5 13,9 21 11 38 20 S 1005,5 20 0 0,0
25.10.2020 03:00:00 13,3 9,9 11,7 13,5 13,9 21 11 47 26 S 1006,5 20 0 0,0
25.10.2020 02:00:00 13,8 10,0 13,0 13,5 13,9 20 11 45 25 S 1007,2 20 0 0,0
25.10.2020 01:00:00 - - - - - - - - - - - - - -
25.10.2020 00:00:00 13,8 11,0 13,4 13,5 13,9 22 12 52 28 S 1008,8 20 0 0,0
24.10.2020 23:00:00 13,9 11,2 13,6 13,5 13,8 22 12 56 30 S 1009,7 20 0 0,0
24.10.2020 22:00:00 14,0 11,3 13,6 13,5 13,9 22 12 49 26 S 1010,0 20 0 0,0
24.10.2020 21:00:00 14,2 11,7 13,8 13,5 13,9 21 11 44 24 S 1010,3 20 0 0,0
24.10.2020 20:00:00 14,3 12,2 13,4 13,5 13,8 25 14 45 25 S 1011,0 20 0 0,0
24.10.2020 19:00:00 14,2 12,2 13,1 13,5 13,9 16 9 40 22 S 1011,6 20 0 0,0
24.10.2020 18:00:00 13,8 12,2 12,9 13,5 13,9 19 10 38 21 S 1011,8 19 0 0,0
24.10.2020 17:00:00 13,9 12,1 13,3 13,5 13,9 20 11 42 23 S 1012,3 18 0 0,0
24.10.2020 16:00:00 13,8 12,2 13,2 13,5 13,8 15 8 39 21 SSW 1013,0 20 0 0,2
24.10.2020 15:00:00 13,8 12,0 13,5 13,5 13,8 18 10 38 20 S 1013,2 10 0 0,0
24.10.2020 14:00:00 13,6 12,0 12,8 13,5 13,9 18 10 37 20 S 1013,8 17 0 0,0
24.10.2020 13:00:00 12,8 11,7 12,3 13,5 13,9 17 9 45 24 S 1014,4 14 0 0,0
24.10.2020 12:00:00 12,5 11,4 12,2 13,5 13,8 19 11 39 21 S 1015,1 12 0 0,0
24.10.2020 11:00:00 12,4 10,8 12,2 13,5 13,8 18 10 34 18 S 1015,2 14 0 0,0
24.10.2020 10:00:00 12,4 10,1 11,8 13,5 13,8 18 10 36 20 S 1015,3 20 14 0,0

tt = temperature
td = dewpoint
tt 5cm = temperature 5cm
tt -20cm = temperature -20cm
tt -100cm = temperature -100cm
ff = wind speed
fx = gusts
dd = wind direction
ppp = reduced air pressure
vv = visibility
sd = sunshine duration
rr = precipitation

Next stations